FW1177 Weather Reports


time (UTC)temp
F
wind
direction
speed
knots
gust
knots
rain 1hr
in
rain 24hr
in
rain mn
in
humidity
%
barometer
mb
20260502163622 73 315 0.9 2.6 0.00 0.01 0.00 44 1048.6
20260502163522 73 294 1.7 3.5 0.00 0.01 0.00 45 1048.6
20260502162620 72 132 0.0 0.9 0.00 0.01 0.00 43 1048.5
20260502161621 73 60 1.7 3.5 0.00 0.01 0.00 48 1048.6
20260502160720 71 32 2.6 5.2 0.00 0.01 0.00 49 1048.7
20260502151923 70 22 0.9 1.7 0.00 0.01 0.00 60 1048.5
20260502150821 69 325 0.0 1.7 0.00 0.02 0.00 60 1048.5
20260502123020 50 45 0.0 0.0 0.00 0.06 0.00 96 1047.1
20260502122020 49 45 0.0 0.0 0.00 0.06 0.00 97 1046.9
20260502121922 49 45 0.0 0.0 0.00 0.06 0.00 97 1046.9
20260502115924 49 45 0.0 0.0 0.00 0.06 0.00 97 1046.4
20260502114937 49 45 0.0 0.0 0.00 0.06 0.00 96 1046.2
20260502114021 49 45 0.0 0.0 0.00 0.06 0.00 97 1046.3
20260502113919 49 45 0.0 0.0 0.00 0.06 0.00 96 1046.3
20260502112920 49 45 0.0 0.0 0.00 0.06 0.00 96 1046.3
20260502111938 49 45 0.0 0.0 0.00 0.06 0.00 97 1046.3
20260502111020 49 45 0.0 0.0 0.00 0.06 0.00 97 1046.1
20260502110047 50 45 0.0 0.0 0.00 0.06 0.00 97 1046.0
20260502105122 50 45 0.0 0.0 0.00 0.06 0.00 96 1045.8
20260502104221 50 45 0.0 0.0 0.00 0.06 0.00 96 1045.8
20260502103222 50 45 0.0 0.0 0.00 0.06 0.00 95 1045.7
20260502102222 50 45 0.0 0.0 0.00 0.06 0.00 96 1045.6
20260502101238 51 45 0.0 0.0 0.00 0.06 0.00 96 1045.4
20260502100240 51 45 0.0 0.0 0.00 0.06 0.00 96 1045.5
20260502090422 53 45 0.0 0.0 0.00 0.07 0.00 95 1045.3
20260502071222 54 157 0.0 0.0 0.00 0.07 0.00 96 1045.4
20260502071139 54 157 0.0 0.0 0.00 0.07 0.00 95 1045.4
20260502065137 54 157 0.0 0.0 0.00 0.07 0.00 94 1045.2
20260502061122 55 157 0.0 0.0 0.00 0.07 0.00 94 1045.6
20260502055138 55 157 0.0 0.0 0.00 0.07 0.00 94 1045.6
20260502054221 55 157 0.0 0.0 0.00 0.07 0.00 94 1045.6
20260502053320 55 157 0.0 0.0 0.00 0.07 0.00 93 1045.7
20260502053221 55 157 0.0 0.0 0.00 0.07 0.00 94 1045.7
20260502052222 55 157 0.0 0.0 0.00 0.07 0.00 94 1045.7
20260502051321 54 157 0.0 0.0 0.00 0.07 0.00 94 1045.7
20260502050320 54 157 0.0 0.0 0.00 0.07 0.00 93 1045.8
20260502045344 54 157 0.0 0.0 0.00 0.07 0.07 92 1045.7
20260502044427 55 157 0.0 0.0 0.00 0.07 0.07 93 1045.6
20260502043426 55 157 0.0 0.0 0.00 0.07 0.07 92 1045.3
20260502035545 55 157 0.0 0.0 0.00 0.07 0.07 93 1044.9
20260502034527 55 157 0.0 0.0 0.00 0.07 0.07 92 1044.9
20260502033626 55 157 0.0 0.0 0.00 0.07 0.07 93 1044.9
20260502032627 56 157 0.0 0.0 0.00 0.07 0.07 92 1044.7
20260502031628 56 157 0.0 0.0 0.00 0.07 0.07 93 1044.8
20260502030727 56 157 0.0 0.0 0.00 0.07 0.07 93 1044.8
20260502025728 56 157 0.0 0.0 0.00 0.07 0.07 92 1044.7
20260502024729 56 157 0.0 0.0 0.00 0.07 0.07 91 1044.7
20260502023827 56 157 0.0 0.0 0.00 0.07 0.07 92 1044.6
20260502022827 56 157 0.0 0.0 0.00 0.07 0.07 91 1044.4
20260502021829 56 157 0.0 0.0 0.00 0.07 0.07 90 1044.4
20260502013727 57 157 0.0 0.0 0.00 0.07 0.07 89 1043.6
20260502012827 57 157 0.0 0.0 0.00 0.07 0.07 88 1043.8
20260502011827 57 157 0.0 0.0 0.00 0.07 0.07 87 1043.6
20260502010829 57 157 0.0 0.0 0.00 0.07 0.07 87 1043.7
20260502004827 58 157 0.0 0.0 0.00 0.07 0.07 86 1043.1
20260502001828 59 157 0.0 0.0 0.00 0.07 0.07 83 1043.1
20260502000828 59 157 0.0 0.0 0.00 0.07 0.07 81 1043.0
20260501235927 59 157 0.0 0.0 0.00 0.07 0.07 81 1043.0
20260501235027 60 157 0.0 0.0 0.00 0.07 0.07 79 1043.6
20260501234043 60 157 0.0 0.0 0.00 0.07 0.07 77 1043.5
20260501233043 60 157 0.0 0.0 0.00 0.07 0.07 78 1043.6
20260501232143 60 157 0.0 0.0 0.00 0.07 0.07 76 1043.2
20260501231242 60 157 0.0 0.0 0.00 0.07 0.07 76 1043.0
20260501231127 60 157 0.0 0.0 0.00 0.07 0.07 76 1042.9
20260501225143 61 157 0.0 0.0 0.00 0.07 0.07 73 1042.8
20260501223127 61 157 0.0 0.0 0.00 0.07 0.07 72 1041.9
20260501222129 61 157 0.0 0.0 0.00 0.07 0.07 72 1041.7
20260501221227 61 157 0.0 0.0 0.00 0.07 0.07 72 1041.7
20260501220227 61 157 0.0 0.0 0.00 0.07 0.07 71 1041.8
20260501215244 61 157 0.0 0.0 0.00 0.07 0.07 69 1042.0
20260501214325 61 180 0.0 0.0 0.00 0.07 0.07 67 1041.9
20260501213327 61 337 0.0 0.0 0.00 0.07 0.07 67 1042.5
20260501212426 61 337 0.0 0.0 0.00 0.07 0.07 66 1042.4
20260501212327 61 337 0.0 0.9 0.00 0.07 0.07 66 1042.5
20260501210328 61 360 0.9 1.7 0.00 0.07 0.07 62 1042.4
20260501203526 62 358 2.6 6.1 0.00 0.08 0.07 63 1041.1
20260501200627 61 352 1.7 4.3 0.00 0.08 0.07 68 1041.9
20260501200527 61 350 2.6 6.1 0.00 0.08 0.07 69 1042.0
20260501195626 61 349 1.7 4.3 0.00 0.08 0.07 72 1041.7
20260501193727 60 349 3.5 6.1 0.00 0.08 0.07 77 1042.2
20260501193628 60 351 3.5 5.2 0.00 0.08 0.07 77 1042.3
20260501192727 60 51 0.9 2.6 0.00 0.08 0.07 79 1042.6
20260501191727 59 28 0.9 3.5 0.00 0.08 0.07 80 1042.9
20260501190727 59 320 1.7 3.5 0.00 0.08 0.07 80 1043.4
20260501185826 59 347 0.9 3.5 0.00 0.08 0.07 83 1043.7
20260501183827 58 10 1.7 3.5 0.00 0.08 0.07 84 1043.9
20260501182926 58 31 0.9 2.6 0.00 0.08 0.07 83 1044.0
20260501182827 58 27 0.0 2.6 0.00 0.08 0.07 84 1044.0
20260501181827 57 303 1.7 3.5 0.00 0.08 0.07 85 1044.2
20260501180827 57 45 0.9 2.6 0.01 0.08 0.07 86 1044.2
20260501175826 57 70 0.0 1.7 0.01 0.08 0.07 88 1044.7
20260501174828 57 300 0.9 1.7 0.01 0.08 0.07 88 1044.9
20260501172843 56 318 0.9 2.6 0.01 0.08 0.07 90 1044.9
20260501170826 56 339 0.0 0.0 0.00 0.07 0.06 91 1045.1
20260501165843 56 343 0.9 1.7 0.00 0.07 0.06 91 1045.5